This is the latest recevied weather packets stored in our database for station/object iz1wiy-2. If no packets are shown the sender has not sent any weather packets the latest 10 day(s).
| Time | Temp. | Humidity | Pressure | Rain* | Wind** | Luminosity | Snow |
|---|---|---|---|---|---|---|---|
| 1777896603 | 18.89° C | 69% | 1018.3 hPa | 0 mm | - | - | - |
| 1777895703 | 18.89° C | 68% | 1018.5 hPa | 0 mm | - | - | - |
| 1777894203 | 18.89° C | 70% | 1018.5 hPa | 0 mm | - | - | - |
| 1777893903 | 18.89° C | 70% | 1018.6 hPa | 0 mm | - | - | - |
| 1777893603 | 18.89° C | 70% | 1018.6 hPa | 0 mm | - | - | - |
| 1777893303 | 18.33° C | 70% | 1018.7 hPa | 0 mm | - | - | - |
| 1777893003 | 18.33° C | 70% | 1018.7 hPa | 0 mm | - | - | - |
| 1777892703 | 18.33° C | 69% | 1018.8 hPa | 0 mm | - | - | - |
| 1777890003 | 18.33° C | 66% | 1018.9 hPa | 0 mm | - | - | - |
| 1777889703 | 18.33° C | 66% | 1018.9 hPa | 0 mm | - | - | - |
| 1777889403 | 18.33° C | 65% | 1018.9 hPa | 0 mm | - | - | - |
| 1777889103 | 18.33° C | 66% | 1018.8 hPa | 0 mm | - | - | - |
| 1777888503 | 18.33° C | 65% | 1018.8 hPa | 0 mm | - | - | - |
| 1777887603 | 18.33° C | 64% | 1018.7 hPa | 0 mm | - | - | - |
| 1777887303 | 18.33° C | 64% | 1018.7 hPa | 0 mm | - | - | - |
| 1777887003 | 18.33° C | 65% | 1018.8 hPa | 0 mm | - | - | - |
| 1777886703 | 18.33° C | 66% | 1018.8 hPa | 0 mm | - | - | - |
| 1777886403 | 18.33° C | 65% | 1018.9 hPa | 0 mm | - | - | - |
| 1777886103 | 18.33° C | 65% | 1018.8 hPa | 0 mm | - | - | - |
| 1777885803 | 18.33° C | 65% | 1018.7 hPa | 0 mm | - | - | - |
| 1777885503 | 18.33° C | 65% | 1018.8 hPa | 0 mm | - | - | - |
| 1777885204 | 18.33° C | 66% | 1018.8 hPa | 0 mm | - | - | - |
| 1777884903 | 18.33° C | 66% | 1018.8 hPa | 0 mm | - | - | - |
| 1777884003 | 18.33° C | 66% | 1018.8 hPa | 0 mm | - | - | - |
| 1777883703 | 18.33° C | 64% | 1018.7 hPa | 0 mm | - | - | - |
* Rain latest hour (hover to see other rain measurements)
** Current wind speed in m/s (hover to see current wind gust speed)